カタログに戻る

STARLINK-31823

運用中通信VLEO
NORAD 59794·PAYLOAD·🇺🇸 United States

打ち上げ May 18, 2024 から Cape Canaveral Space Force Station

Loading…

次のパス (今後24時間)

TLE

最新Source: CelesTrak SupGP

元期: Sep 14, 2026, 20:58 UTC

1 59794C 24093N   26257.87409722  .00032602  00000+0  11809-2 0  2573
2 59794  43.0008 220.4368 0001403 257.2386 304.0614 15.27561014    18

AllMySatでSTARLINK-31823をリアルタイム追跡

Download on the App Store